Regional Weather Roundup
Issued by NWS Boston, MA

Current Version | Previous Version | Text Only | Print | Product List | Glossary Off
Versions: 1 2 3 4 5 6 7 8 9 10 11 12 13 14 15 16 17 18 19 20 21 22 23 24 25 26 27 28 29 30 31 32 33 34 35 36 37 38 39 40 41 42 43 44 45 46 47 48 49 50
000 ASUS41 KBOX 170510 RWRBOX REGIONAL WEATHER ROUNDUP NATIONAL WEATHER SERVICE BOSTON/NORTON MA 1200 AM EST SAT NOV 17 2018 NOTE: "FAIR" INDICATES FEW OR NO CLOUDS BELOW 12,000 FEET WITH NO SIGNIFICANT WEATHER AND/OR OBSTRUCTIONS TO VISIBILITY. MAZALL-170600- EASTERN MASSACHUSETTS CITY SKY/WX TMP DP RH WIND PRES REMARKS BOSTON FAIR 39 30 70 SW16 29.80R WCI 30 BEVERLY FAIR 38 28 67 W13 29.77R WCI 30 LAWRENCE FAIR 37 28 70 SW8 29.79R WCI 31 BEDFORD FAIR 31 26 82 SW7 29.79R WCI 24 BLUE HILL N/A 33 30 88 W15G21 29.78R WCI 23 NORWOOD FAIR 38 31 76 SW8 29.81R MARSHFIELD FAIR 37 32 81 SW8G17 29.80S WCI 31 PLYMOUTH FAIR 41 32 70 SW10 29.82R TAUNTON CLOUDY 40 32 73 SW8 29.83R NEW BEDFORD CLOUDY 40 34 79 W7 29.84R $$ MAZALL-170600- CAPE COD AND THE ISLANDS CITY SKY/WX TMP DP RH WIND PRES REMARKS FALMOUTH FAIR 39 32 75 W17 29.84R WCI 30 HYANNIS FAIR 40 32 73 W10 29.81R CHATHAM FAIR 39 31 72 W12G18 29.83R WCI 32 PROVINCETOWN FAIR 41 33 73 W23G30 29.81R WCI 31 NANTUCKET FAIR 43 30 60 W18G28 29.85R MARTHAS VNYRD CLOUDY 44 32 62 W16G26 29.85R $$ MAZALL-170600- CENTRAL AND WESTERN MASSACHUSETTS CITY SKY/WX TMP DP RH WIND PRES REMARKS WORCESTER FAIR 35 29 78 W18G29 29.77R WCI 24 FITCHBURG FAIR 36 28 73 VRB7 29.80R WCI 30 ORANGE CLOUDY 40 28 62 W6 29.82R SPRINGFIELD CLOUDY 38 29 72 CALM 29.84R WESTFIELD CLOUDY 39 29 67 CALM 29.85R NORTH ADAMS CLOUDY 37 30 75 W13G24 29.84R WCI 29 PITTSFIELD CLOUDY 35 28 75 W12 29.82R WCI 27 $$ RIZALL-170600- RHODE ISLAND CITY SKY/WX TMP DP RH WIND PRES REMARKS PROVIDENCE MOCLDY 38 31 76 SW5 29.85R NEWPORT FAIR 39 31 72 VRB5 29.85R BLOCK ISLAND MOCLDY N/A N/A N/A W17G30 29.88R SMITHFIELD CLOUDY 37 31 78 W9 29.83R WCI 30 WESTERLY FAIR 42 32 67 W10 29.88R $$ CTZALL-170600- CONNECTICUT CITY SKY/WX TMP DP RH WIND PRES REMARKS BRADLEY INTL MOCLDY 37 31 78 S6 29.86R HARTFORD CLOUDY 40 30 67 SW6 29.88R BRIDGEPORT FAIR 40 31 70 W10 29.92R DANBURY CLOUDY 38 29 70 SW13 29.91R WCI 30 GROTON FAIR 41 31 67 W14 29.88R NEW HAVEN FAIR 41 31 67 W10G17 29.90R CHESTER FAIR 37 30 75 W5 29.88R MERIDEN FAIR 39 29 67 W5 29.89R WILLIMANTIC CLOUDY 39 31 72 W5 29.86R OXFORD MOCLDY 37 29 72 W10G17 29.88R WCI 30 $$ MEZ002-015-021-024-NHZ003-005-008-011-012-014-VTZ005-008-170600- NORTHERN NEW ENGLAND CITY SKY/WX TMP DP RH WIND PRES REMARKS PORTLAND ME FAIR 30 27 88 SW6 29.71R WCI 24 BANGOR ME LGT SNOW 27 24 89 W5 29.66R FOG WCI 22 CONCORD NH FAIR 26 24 92 E3 29.74R MANCHESTER NH FAIR 33 29 85 SW6 29.74R WCI 28 NASHUA NH FAIR 34 31 88 W5 29.78R WCI 30 PORTSMOUTH NH PTCLDY 30 27 89 SW5 29.73R WCI 25 JAFFREY NH CLOUDY 36 29 75 SW8G21 29.75R WCI 30 KEENE NH CLOUDY 35 29 78 VRB3 29.79R BURLINGTON VT CLOUDY 34 30 85 S3 29.76R MT. WASHINGTON NOT AVBL $$ NYZ052-076-170600- EASTERN NEW YORK CITY SKY/WX TMP DP RH WIND PRES REMARKS ALBANY CLOUDY 39 30 70 SW9 29.87R NEW YORK CITY MOCLDY 40 29 64 W13 29.97R $$ ANZALL-170600- MARINE OBSERVATIONS STATION/POSITION TIME TEMP WIND PRES VSBY WAVE AIR SEA DIR/SP/G HT/PER (UTC) (F) (DEG/KT/KT) (MB) (MI) (FT/S) BOSTON BUOY 0450 43 52 250/ 21/ 27 1008.0R 7/11 BUZZARDS BAY 0400 45 270/ 28/ 30 1010.3R NANTUCKET SOUND 0450 45 48 280/ 25/ 31 1010.4R 3/ 4 MASS BAY-STELLWA 0404 42 50 270/ 21/ 27 1006.2R 1 7/8 9/11 ISLE OF SHOALS 0400 38 240/ 17/ 19 1006.1R S OF BLOCK IS 0443 55 N/A 11/11 $$ ......................KEY......................... SKY/WX - SKY CONDITION/PRESENT WEATHER TMP - TEMPERATURE IN FAHRENHEIT DWPT - DEWPOINT IN FAHRENHEIT RH - RELATIVE HUMIDITY IN PERCENT WIND - DIRECTION AND SPEED IN MPH PRES - MEAN SEA LEVEL PRESSURE IN INCHES OF HG WCI - WIND CHILL INDEX VSB - VISIBILITY IN MILES HX - HEAT INDEX TC - TEMPERATURE IN CELSIUS VRB - VARIABLE WIND DIRECTION N/A - NOT AVAILABLE

USA.gov is the U.S. government's official web portal to all federal, state and local government web resources and services.